Tracking 31027 objects as of 19-Jul-2025
HD Live streaming from Space Station
objects crossing your sky now

SL-14 R/B

Track SL-14 R/B now!
10-day predictions


NORAD ID: 16612
Int'l Code: 1986-018B
Perigee: 603.7 km
Apogee: 629.2 km
Inclination: 82.5 °
Period: 96.9 minutes
Semi major axis: 6987 km
RCS: 4.4703 m2 (large)
Launch date: February 19, 1986
Source: Commonwealth of Independent States (former USSR) (CIS)
Launch site: PLESETSK MISSILE AND SPACE COMPLEX (PKMTR)

Note: This is a ROCKET BODY
Your satellite tracking list
Your tracking list is empty




NASA's NSSDC Master Catalog

Two Line Element Set (TLE):
1 16612U 86018B   25199.06954112  .00000328  00000-0  34374-4 0  9991
2 16612  82.5141  43.8934 0018261 117.4453 242.8623 14.86357352  8495
Source of the keplerian elements: AFSPC